This demonstration page uses our WeatherBlox Daily Observations layout. Learn more.

Left ArrowRight Arrow

Hourly Observations for December 4, 2016

Temp ( °F °C ) Dew Point ( °F °C ) Humidity (%) Winds ( mph kmh ) Pressure ( in mb ) Visibility ( mi km ) Precip ( " mm )
12:19 am 00:19 Clear 30 -1 28 -2 93 93 N N/A 30.30 1026 10 16 N/A
12:38 am 00:38 Clear 30 -1 28 -2 93 93 N N/A 30.30 1026 10 16 N/A
12:59 am 00:59 Clear 30 -1 28 -2 93 93 N N/A 30.30 1026 7 11 N/A
1:19 am 01:19 Clear 30 -1 28 -2 93 93 N N/A 30.27 1025 10 16 N/A
1:38 am 01:38 Clear 30 -1 28 -2 93 93 N N/A 30.30 1026 10 16 N/A
1:59 am 01:59 Clear 30 -1 28 -2 93 93 N N/A 30.30 1026 10 16 N/A
2:19 am 02:19 Clear 30 -1 30 -1 100 100 N N/A 30.27 1025 7 11 N/A
2:38 am 02:38 Partly Cloudy 32 undefined 30 -1 93 93 N N/A 30.27 1025 7 11 N/A
2:59 am 02:59 Partly Cloudy 30 -1 30 -1 100 100 N N/A 30.27 1025 7 11 N/A
3:19 am 03:19 Clear 32 undefined 30 -1 93 93 ENE 3 6 30.27 1025 10 16 N/A
3:38 am 03:38 Mostly Cloudy 32 undefined 28 -2 87 87 ENE 3 6 30.27 1025 10 16 N/A
3:59 am 03:59 Cloudy 32 undefined 28 -2 87 87 E 3 6 30.24 1024 10 16 N/A
4:19 am 04:19 Cloudy 32 undefined 30 -1 93 93 E 3 6 30.24 1024 10 16 N/A
4:38 am 04:38 Cloudy 32 undefined 28 -2 87 87 E 3 6 30.24 1024 10 16 N/A
4:59 am 04:59 Cloudy 32 undefined 30 -1 93 93 E 3 6 30.24 1024 10 16 N/A
5:19 am 05:19 Cloudy 32 undefined 30 -1 93 93 ESE 3 6 30.24 1024 10 16 N/A
5:38 am 05:38 Cloudy 32 undefined 30 -1 93 93 N N/A 30.24 1024 10 16 N/A
5:59 am 05:59 Cloudy 32 undefined 30 -1 93 93 N N/A 30.24 1024 10 16 N/A
6:19 am 06:19 Cloudy 32 undefined 30 -1 93 93 N N/A 30.24 1024 10 16 N/A
6:38 am 06:38 Partly Cloudy 32 undefined 30 -1 93 93 E 3 6 30.24 1024 10 16 N/A
6:59 am 06:59 Mostly Cloudy 34 1 30 -1 87 87 E 5 7 30.24 1024 10 16 N/A
7:18 am 07:18 Partly Cloudy 34 1 30 -1 87 87 SE 7 11 30.21 1023 10 16 N/A
7:39 am 07:39 Clear 34 1 30 -1 87 87 ESE 7 11 30.21 1023 10 16 N/A
7:59 am 07:59 Partly Cloudy 34 1 30 -1 87 87 SE 5 7 30.21 1023 10 16 N/A
8:18 am 08:18 Cloudy 34 1 30 -1 87 87 SE 5 7 30.21 1023 10 16 N/A
8:39 am 08:39 Cloudy 34 1 30 -1 87 87 SSE 5 7 30.21 1023 10 16 N/A
8:59 am 08:59 Cloudy 36 2 30 -1 81 81 SE 7 11 30.21 1023 10 16 N/A
9:18 am 09:18 Cloudy 36 2 30 -1 81 81 SE 9 15 30.21 1023 10 16 N/A
9:39 am 09:39 Cloudy 36 2 32 undefined 87 87 ESE 8 13 30.18 1022 10 16 N/A
9:59 am 09:59 Cloudy 36 2 32 undefined 87 87 ESE 8 13 30.18 1022 10 16 N/A
10:18 am 10:18 Mostly Cloudy 37 3 32 undefined 81 81 ESE 10 17 30.15 1021 10 16 N/A
10:39 am 10:39 Mostly Cloudy 37 3 32 undefined 81 81 ESE 10 17 30.15 1021 10 16 N/A
10:59 am 10:59 Cloudy 37 3 32 undefined 81 81 ESE 9 15 30.15 1021 10 16 N/A
11:18 am 11:18 Cloudy 37 3 32 undefined 81 81 ESE 9 15 30.12 1020 10 16 N/A
11:39 am 11:39 Cloudy 37 3 32 undefined 81 81 ESE 10 17 30.12 1020 10 16 N/A
11:59 am 11:59 Cloudy 37 3 32 undefined 81 81 ESE 9 15 30.09 1019 10 16 N/A
12:18 pm 12:18 Cloudy 37 3 32 undefined 81 81 SE 9 15 30.09 1019 10 16 N/A
12:39 pm 12:39 Cloudy 39 4 32 undefined 75 75 SE 14 22 30.03 1017 10 16 N/A
12:59 pm 12:59 Cloudy 39 4 32 undefined 75 75 SE 10 17 30.03 1017 10 16 N/A
1:18 pm 13:18 Cloudy 39 4 32 undefined 75 75 SE 13 20 30.00 1016 10 16 N/A
1:39 pm 13:39 Cloudy 39 4 32 undefined 75 75 SE 12 19 30.00 1016 7 11 N/A
1:59 pm 13:59 Cloudy 39 4 34 1 81 81 ESE 10 17 29.97 1015 10 16 N/A
2:18 pm 14:18 Cloudy 39 4 34 1 81 81 ESE 9 15 29.94 1014 7 11 N/A
2:39 pm 14:39 Cloudy 37 3 34 1 87 87 ESE 10 17 29.94 1014 7 11 N/A
2:59 pm 14:59 Cloudy 37 3 36 2 93 93 SE 12 19 29.94 1014 3 5 N/A
3:18 pm 15:18 Cloudy 37 3 36 2 93 93 SE 8 13 29.94 1014 2 3 N/A
3:39 pm 15:39 Cloudy 37 3 36 2 93 93 SE 8 13 29.94 1014 3 4 N/A
3:59 pm 15:59 Cloudy 37 3 36 2 93 93 SE 3 6 29.94 1014 3 4 N/A
4:18 pm 16:18 Cloudy 37 3 36 2 93 93 SE 5 7 29.94 1014 3 5 N/A
4:39 pm 16:39 Cloudy 37 3 36 2 93 93 SE 8 13 29.94 1014 2 3 N/A
4:59 pm 16:59 Cloudy 37 3 36 2 93 93 SE 5 7 29.91 1013 3 5 N/A
5:18 pm 17:18 Cloudy 37 3 36 2 93 93 SE 6 9 29.91 1013 3 5 N/A
5:39 pm 17:39 Cloudy 37 3 36 2 93 93 SE 6 9 29.91 1013 3 5 N/A
5:58 pm 17:58 Cloudy 37 3 36 2 93 93 SE 6 9 29.91 1013 4 6 N/A
6:18 pm 18:18 Cloudy 37 3 37 3 100 100 SE 9 15 29.88 1012 3 5 N/A
6:39 pm 18:39 Cloudy 37 3 37 3 100 100 SSE 6 9 29.88 1012 5 8 N/A
6:58 pm 18:58 Cloudy 37 3 37 3 100 100 SSE 7 11 29.88 1012 5 8 N/A
7:19 pm 19:19 Cloudy 37 3 37 3 100 100 SSW 5 7 29.91 1013 4 6 N/A
7:39 pm 19:39 Cloudy 39 4 37 3 93 93 SSW 8 13 29.88 1012 3 5 N/A
7:58 pm 19:58 Cloudy 39 4 37 3 93 93 SW 8 13 29.88 1012 4 6 N/A
8:19 pm 20:19 Cloudy 39 4 37 3 93 93 WSW 12 19 29.91 1013 10 16 N/A
8:39 pm 20:39 Cloudy 39 4 37 3 93 93 WSW 15 24 29.91 1013 10 16 N/A
8:58 pm 20:58 Cloudy 39 4 37 3 93 93 W 18 30 29.91 1013 10 16 N/A
9:19 pm 21:19 Cloudy 39 4 36 2 87 87 W 16 26 29.91 1013 10 16 N/A
9:38 pm 21:38 Cloudy 39 4 36 2 87 87 W 15 24 29.91 1013 10 16 N/A
9:58 pm 21:58 Cloudy 37 3 34 1 87 87 W 20 31 29.94 1014 10 16 N/A
10:19 pm 22:19 Cloudy 37 3 34 1 87 87 W 14 22 29.94 1014 10 16 N/A
10:38 pm 22:38 Cloudy 37 3 34 1 87 87 W 17 28 29.94 1014 10 16 N/A
10:58 pm 22:58 Cloudy 36 2 34 1 93 93 W 22 35 30.00 1016 10 16 N/A
11:19 pm 23:19 Cloudy 36 2 32 undefined 87 87 WNW 18 30 30.00 1016 10 16 N/A
11:38 pm 23:38 Cloudy 36 2 32 undefined 87 87 W 16 26 30.00 1016 10 16 N/A
11:59 pm 23:59 Cloudy 36 2 32 undefined 87 87 W 14 22 30.03 1017 10 16 N/A

Powered by AerisWeather